Location: Unspecified
(50.7693°N, 0.0000°E)
Time: 08:58:34
(UTC+00:00)

A-11 Canister half - Pass Details

Date: 27 June 2019
Orbit: 1526 x 1682 km, 47.3° (Epoch: 24 August)

Event Time Altitude Azimuth Distance (km) Brightness Sun altitude
Rises 03:00:26 0° 219° (SW) 4,780 - -6.2°
Exits shadow 03:02:39 - 216° (SW) 4,098 10.5 -6.0°
Reaches altitude 10° 03:03:45 10° 213° (SSW) 3,775 10.4 -5.9°
Maximum altitude 03:12:28 42° 147° (SSE) 2,079 9.6 -5.0°
Drops below altitude 10° 03:21:01 10° 80° (E) 3,704 12.0 -4.0°
Sets 03:24:13 0° 74° (ENE) 4,683 12.8 -3.7°
